Location: Bolinka
(49.6868°N, 14.9374°E)
Time: 19:59:26
(UTC+00:00)

Daily predictions for brighter satellites

Satellite Brightness Start Highest point End
(mag) Time Altitude Azimuth Time Altitude Azimuth Time Altitude Azimuth
Gbstr 26 Del rocket 4.4 18:52:55 10° WSW 19:00:58 81° SSE 19:08:03 10° ENE
USA 306 3.9 19:00:14 10° WNW 19:04:21 46° N 19:08:29 10° ENE
MOS 1 4.5 19:03:26 10° SSE 19:09:07 82° WSW 19:14:50 10° NNW
Cosmos 1782 4.4 19:08:26 10° SE 19:11:15 19° E 19:14:03 10° NE
MOS 1-B Rocket 4.5 19:03:27 10° NNE 19:11:22 82° ESE 19:18:00 10° SSW
ERS-1 Rocket 4.5 19:11:34 10° ESE 19:15:25 23° ENE 19:19:18 10° N
SPOT 5 4.5 19:14:12 10° ESE 19:18:12 24° ENE 19:22:20 10° N
SJ-6B 4.3 19:16:43 10° SSW 19:20:20 37° W 19:24:03 10° NNW
ERBS 4.4 19:21:06 10° WNW 19:24:01 28° NNW 19:26:55 10° NE
Cosmos 1151 Rocket 4.1 19:21:38 10° SSE 19:25:20 28° E 19:29:04 10° NNE
Cosmos 2278 Rocket 3.9 19:23:59 10° SE 19:26:38 14° E 19:29:18 10° ENE
USA 290 2.3 19:24:00 10° NNW 19:27:16 66° ENE 19:30:10 12° SSE
Terra 3.5 19:23:58 10° ESE 19:27:19 20° ENE 19:30:42 10° NNE
Cosmos 1602 4.3 19:24:07 10° N 19:27:47 40° ENE 19:31:09 12° SE
Meteor 1-25 Rocket 4.4 19:22:30 10° N 19:28:21 70° ENE 19:34:11 10° SSE
USA 307 3.8 19:25:36 10° WNW 19:29:45 47° N 19:33:55 10° E
Ariane Rocket 3.6 19:25:02 10° S 19:29:59 56° W 19:34:59 10° NNW
CREW DRAGON DEMO-1 DEB 3.2 19:28:09 10° W 19:30:45 52° N 19:33:22 10° ENE
Cosmos 2263 Rocket 4.2 19:28:48 10° WSW 19:33:48 33° NW 19:38:51 10° NNE
CZ-2C R/B 4.1 19:29:44 10° NNE 19:34:01 42° E 19:38:18 10° S
Cosmos 1606 3.4 19:32:18 10° SSW 19:36:00 56° WNW 19:39:46 10° N
Cosmos 1844 Rocket 2.6 19:32:43 10° SSW 19:38:17 81° ESE 19:43:54 10° NNE
SPOT 1/Viking Rocket 3.7 19:36:09 11° SSE 19:41:10 64° ENE 19:46:19 10° N
SL-4 R/B 3.6 19:38:12 10° W 19:41:57 28° SW 19:45:35 12° SSE
Cosmos 1805 Rocket 4.0 19:37:53 10° NNW 19:42:12 62° W 19:46:29 10° S
MetOp-B 4.1 19:37:05 10° SSE 19:42:27 81° ENE 19:47:50 10° NNW
USA 308 3.7 19:39:06 10° WNW 19:43:18 49° N 19:47:29 10° E
X-37B 1.5 19:43:11 10° WSW 19:46:07 33° S 19:47:53 19° SE
ARIANE 5 R/B 3.0 19:43:07 14° SE 19:46:33 47° ENE 19:50:43 10° N
Cosmos 1354 Rocket 4.2 19:41:51 10° S 19:46:53 50° ESE 19:51:57 10° NNE
Cosmos 1633 Rocket 3.1 19:46:20 10° N 19:50:43 64° ENE 19:54:17 15° SSE
Cosmos 1745 Rocket 4.3 19:44:56 10° NNW 19:51:07 68° W 19:57:12 10° S
Cosmos 1709 Rocket 3.9 19:47:51 10° N 19:54:02 79° E 19:59:47 12° SSE
SPOT 3 Rocket 3.9 19:49:37 10° S 19:54:45 65° WSW 19:59:53 10° NNW
Cosmos 1437 3.6 19:54:18 22° ESE 19:55:06 25° E 19:57:32 10° NE
Landsat 7 4.1 19:52:48 10° S 19:57:32 68° WSW 20:02:18 10° NNW
Cosmos 1812 3.9 19:56:30 19° SE 19:58:12 26° E 20:01:27 10° NNE
Cosmos 1844 3.7 19:52:46 10° SSW 19:58:32 89° NW 20:04:14 10° NNE
Cosmos 968 Rocket 4.2 19:54:07 10° SW 19:59:18 59° WNW 20:04:29 10° NNE
BREEZE-M DEB (TANK) 4.5 19:55:38 10° W 19:59:51 47° SSW 20:06:55 15° SE
Cosmos 1470 Rocket 4.0 19:55:30 10° N 19:59:51 48° ENE 20:02:47 19° SE
ATLAS 5 CENTAUR R/B 2.4 19:55:07 10° NW 20:00:37 73° SW 20:05:41 17° SSE
NOSS 3-3 (A) 4.2 19:58:00 10° S 20:03:23 43° ESE 20:09:29 10° NE
Cosmos 1328 Rocket 3.8 19:59:49 14° SSE 20:03:29 53° E 20:07:48 10° NNE
NOSS 3-3 (C) 4.2 19:58:07 10° S 20:03:30 43° ESE 20:09:35 10° NE
Akebono 4.3 20:01:34 10° NNW 20:04:11 53° ENE 20:04:50 35° ESE
ATLAS 2AS CENTAUR R/B 4.0 19:58:41 10° NW 20:05:43 38° NNE 20:12:17 10° E
BREEZE M DEB (TANK) 4.5 20:01:38 10° WSW 20:06:04 86° S 20:23:01 10° E
IGS 5A 4.5 20:04:55 10° S 20:08:51 42° W 20:12:50 10° NNW
Meteor 1-26 Rocket 4.2 20:03:36 10° S 20:09:18 78° E 20:14:51 10° NNE
CARTOSAT-1 3.5 20:07:01 20° SSE 20:10:00 73° ENE 20:14:20 10° N
Cosmos 1833 Rocket 3.0 20:04:31 10° NNW 20:10:07 57° NE 20:14:00 20° SE
Meteor 1-14 Rocket 4.3 20:05:56 10° N 20:11:53 76° ENE 20:16:14 18° SSE
Cosmos 2315 Rocket 4.0 20:05:35 10° S 20:11:56 78° E 20:18:21 10° NNE
CRYOSAT 2 4.4 20:07:53 13° S 20:12:21 84° W 20:17:17 10° N
BREEZE-M R/B 1.8 20:11:53 10° WSW 20:14:17 51° SSE 20:15:12 30° E
Cosmos 1933 Rocket 4.1 20:10:14 10° N 20:14:25 44° ENE 20:16:40 24° SE
Cosmos 1666 3.4 20:12:20 10° N 20:15:50 36° ENE 20:17:20 25° ESE
Cosmos 1666 Rocket 4.0 20:11:56 10° NNW 20:16:18 60° W 20:19:57 14° S
USA 215 4.1 20:11:19 10° E 20:17:32 49° N 20:23:46 10° WNW
Cosmos 1538 Rocket 4.4 20:15:01 10° NNW 20:20:19 56° ENE 20:23:35 23° SE
Cosmos 1933 4.5 20:19:17 10° SSW 20:23:09 44° WNW 20:27:03 10° N
USA 245 3.2 20:23:48 26° SW 20:24:35 35° W 20:26:41 10° NNW
USA 305 3.2 20:21:17 10° WNW 20:25:32 64° NNE 20:28:37 18° E
Iridium 4 Rocket 4.1 20:22:02 21° SSE 20:25:40 53° E 20:31:24 10° NNE
Cosmos 1242 Rocket 3.8 20:25:19 10° SW 20:28:44 41° WNW 20:32:08 10° N
Cosmos 158 Rocket 4.5 20:28:27 10° NNW 20:33:07 44° ENE 20:35:40 24° ESE
BREEZE M DEB (TANK) 1.5 20:29:36 10° W 20:33:40 67° SSW 20:34:07 51° SE
Cosmos 773 Rocket 4.2 20:28:24 10° NNW 20:33:42 69° WSW 20:37:01 23° S
Resurs 01 Rocket 3.7 20:31:02 10° SSW 20:34:37 23° W 20:38:13 10° NW
Spot 2 Rocket 3.9 20:34:12 18° S 20:37:54 57° W 20:42:54 10° NNW
SJ 16-02 2.0 20:38:19 30° SE 20:39:28 36° ESE 20:43:32 10° NE
COSMOS 2406 3.2 20:34:49 10° NNW 20:40:32 89° ENE 20:43:43 27° SSE
Cosmos 2228 Rocket 3.9 20:40:06 29° ESE 20:41:19 34° E 20:45:20 10° NNE
Cosmos 2082 Rocket 2.6 20:37:49 10° NNW 20:43:22 54° NE 20:46:29 25° ESE
USA 306 3.0 20:40:25 10° WNW 20:44:41 75° NNE 20:47:01 26° ESE
Meteor 2-6 Rocket 4.1 20:41:14 22° S 20:44:43 70° E 20:50:13 10° NNE
Cosmos 1500 3.8 20:41:37 10° NNW 20:45:18 51° W 20:47:10 25° SSW
CZ-4C R/B 3.0 20:38:55 10° NW 20:46:03 80° SW 20:51:18 25° SSE
Cosmos 1782 3.9 20:43:25 10° SSW 20:47:14 43° WNW 20:51:04 10° N
Gbstr 26 Del rocket 4.4 20:40:55 10° W 20:48:40 75° N 20:55:10 10° E
ERS-1 Rocket 3.3 20:50:52 24° S 20:53:49 62° WSW 20:58:50 10° NNW
deb Kosmos-1763 3.8 20:50:58 10° NNW 20:54:32 88° ENE 20:55:19 52° SSE
SL-24 DEB 4.3 20:53:26 35° SSE 20:55:15 63° E 20:59:49 10° N
SPOT 5 3.3 20:52:52 24° S 20:55:49 61° W 21:01:03 10° NNW
H-2A R/B 3.4 20:52:02 10° NNE 20:56:14 70° ESE 20:57:49 36° S
Meteor 1-11 Rocket 3.9 20:53:46 10° N 20:59:46 74° ENE 21:02:44 31° SSE
Cosmos 1271 Rocket 2.8 21:00:22 44° SSE 21:01:26 66° E 21:05:27 10° NNE
Cosmos 1777 Rocket 4.0 20:58:39 14° SSW 21:03:08 83° WNW 21:08:23 10° NNE
Terra 2.0 21:02:23 31° S 21:04:36 68° WSW 21:09:22 10° NNW
CREW DRAGON DEMO-1 DEB 3.1 21:02:34 10° WNW 21:04:38 49° WNW 21:04:38 49° WNW
Cosmos 2278 Rocket 2.1 21:05:44 20° SSW 21:09:45 78° ESE 21:15:26 10° NNE
USA 307 2.8 21:05:44 10° WNW 21:10:02 88° SSW 21:11:26 42° ESE
Cosmos 1340 Rocket 3.5 21:09:21 10° N 21:13:16 42° ENE 21:14:05 37° ESE
Cosmos 923 Rocket 4.1 21:08:12 10° NNW 21:13:27 69° ENE 21:15:32 37° SE
Cosmos 1898 Rocket 4.4 21:17:24 30° ESE 21:18:05 31° E 21:22:42 10° NE
Cosmos 1515 Rocket 4.4 21:17:35 20° SW 21:20:25 46° WNW 21:24:41 10° N
Cosmos 1544 3.2 21:17:09 10° N 21:20:41 54° ENE 21:20:56 52° E
Cosmos 2369 Rocket 4.3 21:21:41 11° E 21:21:41 11° E 21:23:09 10° E
X-37B 3.4 21:20:02 10° WSW 21:20:09 11° WSW 21:20:09 11° WSW
Cosmos 1869 Rocket 3.4 21:18:26 10° N 21:22:47 87° W 21:23:54 50° S
Cosmos 2084 3.6 21:18:43 10° SW 21:22:51 69° NW 21:27:08 10° NE
Cosmos 1536 2.7 21:18:57 10° N 21:23:03 83° E 21:23:48 58° SSE
USA 308 2.8 21:19:12 10° WNW 21:23:31 77° SSW 21:24:24 54° SE
Meteor 1-10 Rocket 4.3 21:22:59 25° SSW 21:26:20 73° WNW 21:32:00 10° N
Cosmos 2154 Rocket 4.0 21:23:42 10° NNW 21:30:04 79° W 21:33:02 34° S
Cosmos 1943 Rocket 3.4 21:30:26 24° ESE 21:30:44 25° ESE 21:35:11 10° NE
Cosmos 1812 4.5 21:31:31 16° WSW 21:33:53 28° WNW 21:37:17 10° N
Cosmos 1975 4.3 21:32:36 10° NNE 21:35:53 24° ENE 21:36:27 23° E
ALOS 2 3.6 21:38:42 31° E 21:39:45 36° ENE 21:43:47 10° N
Cosmos 44 3.9 21:34:39 10° NW 21:40:05 61° NE 21:42:24 33° ESE
Cosmos 990 Rocket 4.1 21:40:01 46° SSE 21:41:10 56° ESE 21:46:19 10° NNE
Cosmos 1707 Rocket 3.6 21:42:54 56° SE 21:43:27 62° E 21:47:48 10° NNE
NOSS 3-4 (A) 3.9 21:36:49 10° NW 21:43:42 67° SW 21:47:02 36° SSE
NOSS 3-4 (C) 3.9 21:36:55 10° NW 21:43:48 68° SW 21:47:09 36° SSE
ATLAS 5 CENTAUR R/B 4.3 21:41:05 10° WNW 21:44:44 17° WSW 21:47:13 14° SW
Cosmos 962 Rocket 4.4 21:43:20 10° N 21:49:30 88° E 21:51:48 41° S
Cosmos 2112 Rocket 4.0 21:46:55 10° NNW 21:52:18 89° WSW 21:53:50 49° SSE
Cosmos 1833 Rocket 4.0 21:48:58 10° NW 21:53:43 28° WSW 21:55:42 23° SW
SL-24 R/B - RUBIN 2 4.0 21:49:22 10° NW 21:55:02 78° NE 21:56:38 45° SE
Nadezhda 1 Rocket 4.3 21:51:52 27° SSW 21:55:22 64° WNW 22:01:37 10° N
Cosmos 1238 Rocket 3.9 21:49:25 10° N 21:55:53 74° ENE 21:57:51 44° SSE
Cosmos 1743 2.6 21:52:51 10° NNW 21:56:43 77° W 21:56:52 75° SW
ATLAS 2AS CENTAUR R/B 2.7 21:50:00 10° NW 21:57:28 84° SW 22:00:31 37° SE
SeaSat 1 4.1 21:55:30 10° ENE 21:58:33 19° E 21:58:33 19° E
USA 215 3.3 21:55:02 18° ESE 22:00:11 77° NNE 22:06:43 10° WNW
BREEZE-M DEB (TANK) 3.3 21:58:17 10° W 22:03:53 54° N 22:04:40 38° NE
Cosmos 2297 3.8 22:03:58 47° SSE 22:05:11 58° ESE 22:10:46 10° NE
USA 305 3.7 22:01:22 10° WNW 22:04:41 38° WSW 22:04:41 38° WSW
Cosmos 2181 Rocket 4.0 22:07:22 44° SSE 22:09:20 68° E 22:15:27 10° NNE
Cosmos 1733 Rocket 2.9 22:11:19 10° NNW 22:15:39 74° W 22:16:02 68° SW
SJ 16-02 3.0 22:15:14 16° WSW 22:18:05 30° WNW 22:22:02 10° N
Cosmos 1680 Rocket 4.0 22:15:16 10° NNW 22:20:22 47° WSW 22:21:27 41° SW
Cosmos 2341 Rocket 4.2 22:14:28 10° NNW 22:20:48 65° W 22:23:08 40° SSW
Cosmos 2366 rocket 3.9 22:15:54 10° N 22:22:06 88° ENE 22:24:07 46° S
USA 306 4.3 22:20:36 10° WNW 22:23:05 26° WSW 22:23:05 26° WSW
Cosmos 1937 Rocket 3.3 22:24:06 58° S 22:25:03 77° ESE 22:30:15 10° NNE
Cosmos 1818 3.5 22:20:36 10° NW 22:26:07 88° NE 22:27:40 49° SE
Thor Agena Rocket 4.1 22:22:04 10° NNE 22:27:02 42° E 22:27:48 39° ESE
Cosmos 2082 Rocket 3.3 22:22:22 10° NW 22:27:09 29° WSW 22:28:19 27° SW
Cosmos 1908 Rocket 3.8 22:22:57 10° N 22:27:24 58° ENE 22:27:56 54° ESE
Cosmos 967 Rocket 4.4 22:27:44 46° S 22:29:35 69° ESE 22:35:51 10° NE
CZ-4C R/B 4.4 22:28:24 10° WNW 22:34:03 23° WSW 22:36:28 20° SW
Cosmos 1900 4.3 22:33:47 62° S 22:34:30 72° SE 22:39:33 10° NE
Gbstr 26 Del rocket 3.9 22:29:02 10° WNW 22:36:17 85° SSW 22:40:00 25° ESE
ERBS 3.2 22:34:15 10° NW 22:37:05 48° N 22:37:05 48° N
Nimbus 7 Rocket 4.4 22:32:06 10° NNE 22:37:57 65° ESE 22:39:29 48° SSE
Cosmos 858 Rocket 4.4 22:37:14 55° SSW 22:38:25 88° WNW 22:43:41 10° NNE
Cosmos 2218 Rocket 4.1 22:33:51 10° NNW 22:40:04 69° W 22:42:06 44° SSW
Meteor 1-19 Rocket 4.1 22:40:49 51° SSW 22:42:13 79° WNW 22:47:39 10° N
Okean 1 3.9 22:46:34 45° W 22:46:52 46° WNW 22:50:45 10° N
Cosmos 489 Rocket 4.5 22:41:26 10° NNW 22:47:37 69° WSW 22:49:22 48° S
Cosmos 1461 3.5 22:53:28 50° ESE 22:53:28 50° ESE 22:57:45 10° NE
Cosmos 2278 Rocket 4.2 22:49:51 10° W 22:54:29 25° NW 22:59:07 10° NNE
Cosmos 1703 Rocket 3.5 22:57:18 68° ESE 22:57:30 70° E 23:01:53 10° NNE
Cosmos 1862 Rocket 4.2 22:57:00 41° W 22:57:37 44° WNW 23:01:47 10° N
Cosmos 1782 Rocket 3.6 22:54:21 10° N 22:58:49 68° ENE 22:59:17 62° ESE
Cosmos 1898 Rocket 4.3 22:57:39 28° WSW 22:59:59 46° WNW 23:05:08 10° NNE
Nadezhda 3 Rocket 4.1 23:02:11 44° SSE 23:04:07 66° E 23:10:18 10° NNE
Cosmos 1378 4.0 23:04:38 40° ENE 23:04:38 40° ENE 23:07:46 10° NNE
Cosmos 2369 Rocket 2.2 23:03:27 53° SSE 23:04:34 67° ESE 23:10:12 10° NNE
COBE Rocket 4.3 23:07:04 46° SW 23:07:49 50° W 23:12:48 10° NNW
RESURS DK-1 2.7 23:05:11 10° NNW 23:09:20 62° ENE 23:09:53 55° E
Gblst 52 Del rocket 4.3 23:04:05 10° WNW 23:10:49 76° SSW 23:14:42 23° ESE
Meteor 1-13 Rocket 4.4 23:09:32 45° SE 23:10:51 58° E 23:16:17 10° NNE
Meteor 1-12 Rocket 4.3 23:05:20 10° N 23:11:17 77° ENE 23:13:07 46° SSE
Cosmos 1975 3.9 23:08:49 10° NNW 23:12:12 33° W 23:12:12 33° W
SL-27 R/B 3.2 23:10:27 10° NNW 23:13:17 46° NE 23:13:17 46° NE
Cosmos 1943 Rocket 2.4 23:11:55 38° SW 23:14:02 64° WNW 23:19:38 10° NNE
Cosmos 1805 4.2 23:10:28 10° N 23:14:09 38° ENE 23:14:33 37° E
Cosmos 2084 Rocket 4.4 23:10:11 10° NW 23:13:20 36° W 23:13:20 36° W
ALOS 2 3.9 23:16:05 28° W 23:16:09 28° W 23:19:57 10° NW
Cosmos 1733 4.4 23:12:49 10° N 23:16:16 32° ENE 23:16:42 31° E
PSLV R/B 3.6 23:13:41 10° NNE 23:18:08 66° ESE 23:18:26 63° SE
Cosmos 1867 3.9 23:18:57 45° SE 23:19:34 47° ESE 23:24:49 10° NE
Cosmos 1607 4.3 23:19:25 43° SSE 23:20:59 53° ESE 23:27:18 10° NE
DNEPR-1 R/B 4.2 23:19:56 37° WSW 23:22:09 69° NW 23:27:00 10° NE
Meteor 2-4 Rocket 3.9 23:20:31 44° SW 23:22:16 65° WNW 23:27:54 10° N
Cosmos 468 4.4 23:17:26 10° NNW 23:22:45 80° WSW 23:23:50 57° S
Cosmos 2263 4.2 23:22:37 51° S 23:24:01 69° ESE 23:29:48 10° NNE
EO 1 Del DPAF 3.2 23:24:06 10° NNE 23:27:38 72° ENE 23:27:38 72° ENE
Cosmos 1066 Rocket 4.4 23:26:45 44° SSE 23:28:24 63° E 23:34:01 10° NNE
Okean 3 3.4 23:28:08 72° SE 23:28:24 75° E 23:32:39 10° NNE
Okean 1-7 3.2 23:30:15 55° W 23:30:36 57° WNW 23:34:50 10° N
Cosmos 372 Rocket 4.4 23:30:36 40° WSW 23:32:07 55° WNW 23:37:09 10° NNE
ATLAS CENTAUR R/B 2.6 23:33:01 26° E 23:33:01 26° E 23:35:26 10° ENE
Helios 1A 3.5 23:31:38 45° ESE 23:32:28 54° ENE 23:36:32 10° N
Sich 1 Rocket 3.6 23:30:14 10° N 23:34:51 79° E 23:35:34 62° SSE
Cosmos 1125 Rocket 3.6 23:35:51 51° SSE 23:36:54 63° ESE 23:42:05 10° NNE
SeaSat 1 2.5 23:32:03 10° NNE 23:37:00 76° WNW 23:38:19 49° SW
Cosmos 494 Rocket 3.9 23:33:53 10° NNW 23:39:07 77° WSW 23:40:14 55° S
Cosmos 1656 Rocket 3.5 23:39:04 52° SSW 23:40:25 79° ESE 23:45:58 10° NNE
USA 81 4.5 23:35:15 10° N 23:40:29 57° E 23:42:25 36° SE
Cosmos 2242 Rocket 4.3 23:40:22 39° W 23:41:01 42° WNW 23:45:17 10° N
USA 215 3.5 23:42:21 40° SSW 23:43:30 44° SW 23:49:43 10° WNW
Cosmos 1833 4.2 23:40:21 10° NNW 23:46:04 65° WSW 23:47:33 47° S
ATLAS 2AS CENTAUR R/B 4.0 23:42:13 10° WNW 23:47:21 21° WSW 23:47:56 21° WSW
CZ-2D R/B 3.5 23:46:54 10° NE 23:51:36 29° E 23:53:55 21° SE
Cosmos 2297 Rocket 4.2 23:47:52 10° NNW 23:52:41 27° NE 23:57:29 10° ESE
